CAPE
5 0 0 0 0 0 102 129 140 170 590 277 89 60 802 104 0 0 1833 1741 1582 1384 1075 919 1045 1065 962 714 1008 1071 1066 916 1062 1420 1269 1243 1211 1254 1223 1387 1705 2352 2392 2214 2287 2536 2712 2846 2892 2960 3319 3552 3373 3253 3473 3232 3196 3251 3406 3424 3544 3463 3643 2444 2283 2148 2119 2108 2086 2466 2577 2543 2537 2178 1867 1706 1641 1684 1766 1961 2172 2421 2375 2477 2360 2653 2708
0 0 0 0 0 124 110 127 478 378 162 352 224 273 526 76 470 929 1526 1567 1304 882 914 886 741 878 863 645 685 703 763 806 727 749 768 762 772 941 1069 1184 1210 1262 1882 2551 2191 2096 2333 2459 2659 2710 2944 3210 3412 3375 3238 3145 2961 3016 3022 3169 3481 3661 3759 3394 2655 2738 2528 2368 2734 2863 2900 2710 2789 2362 2092 1776 1774 1665 1768 1966 2183 2313 2484 2401 2487 2274 2479
0 0 0 0 0 122 84 598 344 278 320 237 630 273 556 551 978 1046 1137 1142 902 792 822 859 850 711 772 728 730 835 830 717 704 702 668 705 700 629 613 621 696 751 772 1839 2611 2136 1849 2251 2263 2610 2774 2878 2910 3082 3290 3163 2969 2769 2722 2716 3230 3378 3468 3777 3238 3042 2782 3507 3462 3324 3367 3073 2843 2593 2201 2038 1982 1946 1879 2105 2316 2425 2522 2549 2457 2481 2030
0 0 0 0 0 40 0 277 514 317 142 89 545 549 1125 784 875 1064 1042 1091 1036 656 723 799 812 847 771 782 842 900 929 862 708 661 645 678 619 623 586 508 456 387 732 1015 1794 2468 1572 1358 1584 2083 2653 2764 2842 2929 3142 3176 2747 2810 2783 2916 2770 3097 3145 3235 3412 3613 3794 3847 3784 3529 3474 3512 2994 2868 2756 2645 2735 2592 2469 2492 2658 2619 2743 2856 2814 2652 2623
0 0 0 0 3 0 0 13 208 578 702 742 936 1196 1185 1321 1180 1000 1134 1377 1095 1022 1033 1115 814 726 756 793 811 849 804 756 762 739 675 670 688 660 576 571 500 425 588 1109 998 1422 2277 1496 1290 1430 2151 2341 2511 2838 3017 3032 2976 2848 2835 2960 3011 3104 3368 3400 3516 3454 3541 3624 3201 3395 3062 2836 3621 3323 3045 3038 3015 3050 3000 2963 2840 2876 2838 2957 3030 2927 2773
0 0 0 2 0 0 321 1051 1002 841 683 752 840 1000 1229 1250 1208 1209 1344 1390 1160 1144 1121 826 857 670 408 285 335 205 233 405 401 78 79 98 180 188 212 270 380 368 357 662 572 731 1071 1985 1742 1690 1099 1442 2311 2554 2752 2882 2983 3070 3070 3177 3260 3213 3360 3578 3536 3661 3308 3475 3319 3269 3432 3464 3508 2777 2750 2845 2846 2948 2887 2746 2908 2990 2972 3109 3218 3268 2845
0 0 0 0 0 122 992 908 943 829 785 856 995 1009 1024 1143 1150 1210 1357 1169 1271 1252 1230 995 995 1170 677 398 245 210 244 500 484 242 194 148 115 184 231 126 104 80 21 72 245 466 520 941 2053 1778 1005 507 1393 2008 2375 2515 2505 2768 2991 3090 3401 3357 3293 3423 3799 3937 3678 3558 3525 3615 3499 3422 3173 3411 2901 2918 2954 2998 2922 3001 2928 2984 3321 3496 3647 3693 3180
0 0 0 0 0 803 858 761 751 748 871 945 902 862 687 866 870 810 959 781 862 852 823 811 997 1002 1160 814 466 54 62 0 0 7 1 9 45 49 56 57 48 17 0 30 84 194 244 174 42 1406 1457 999 797 819 1791 2003 2154 2487 2620 2983 3214 3108 2865 3488 3733 3511 3133 3184 4307 3982 3600 3026 2686 2834 2956 2926 3322 3205 3064 2947 2908 3102 3406 3589 3595 3434 3510
0 0 0 0 298 260 493 487 552 512 612 614 728 483 816 516 744 765 604 560 459 376 320 664 839 985 1178 1398 1036 75 5 0 0 0 0 0 0 0 6 0 2 8 12 9 11 63 86 137 70 207 1527 1092 690 735 766 1346 1711 1977 2089 2436 2835 3221 3190 2846 3548 3347 3269 3303 3103 3843 4329 3801 3434 3187 3083 2926 3094 3938 3814 3320 3051 3015 3213 3772 3650 3693 3668
0 0 0 0 0 0 164 266 199 12 2 1 4 357 884 398 380 477 373 323 232 189 58 57 326 745 1278 1065 150 0 0 0 0 0 0 0 0 0 0 0 0 0 2 1 2 4 21 108 203 104 654 1315 840 534 410 577 1061 1409 1269 1651 2036 2285 2660 3085 3312 3300 3060 3350 2976 2837 3740 4502 3986 3686 3471 3355 3108 3329 3262 2942 2766 3019 3058 3088 3035 3139 3184
0 0 0 0 0 155 222 42 0 0 0 0 0 28 759 272 154 38 96 118 39 20 13 14 25 52 178 8 19 0 0 0 0 1 2 0 0 0 0 0 0 0 0 6 19 20 35 24 36 60 220 916 945 560 433 270 454 891 918 879 1030 1589 2430 2910 3090 3174 3380 3061 3096 3239 2894 2913 3391 3974 3884 3438 3319 3253 2977 2665 3038 2966 2790 2790 2880 2914 3132
0 0 0 0 113 399 23 0 0 0 8 0 34 49 170 158 24 2 12 9 16 10 14 4 42 43 29 26 11 0 0 0 0 0 0 1 1 0 0 0 0 0 3 16 6 1 0 6 31 115 202 672 815 588 526 570 294 440 525 714 1276 1667 1856 2170 2707 2325 2599 2672 2555 3042 2878 3132 3022 2950 3268 3323 3289 3229 3113 2684 2825 2954 2989 2775 2903 2801 2978
0 0 0 0 113 0 0 0 0 0 11 143 235 153 428 79 25 1 6 19 8 12 17 2 11 23 7 2 2 0 2 17 18 4 1 0 0 3 2 6 33 20 10 5 7 6 12 64 130 184 249 356 639 734 544 395 475 680 527 600 1256 1734 1884 1955 2308 2708 3177 2830 2229 2332 2583 3046 3160 3275 3335 3312 2827 2974 3004 3079 2696 2443 3037 2953 2922 2882 2854
0 0 0 0 312 0 0 0 0 0 42 198 9 161 69 3 2 0 0 0 0 0 9 1 11 11 0 1 1 3 3 8 6 4 1 0 1 0 0 2 6 0 0 3 54 58 46 32 105 313 433 416 385 550 624 457 351 671 772 637 878 1270 1476 2000 1928 2088 2715 2110 2280 2259 2295 2537 2743 2964 3243 3292 3111 3162 3107 2738 2506 2971 2949 2928 2991 2933 2802
0 0 0 0 2 91 0 0 0 0 146 197 13 19 6 0 0 0 0 1 6 6 8 10 9 21 13 12 14 13 6 10 5 2 3 7 1 0 0 0 0 0 0 0 0 75 122 136 152 209 353 512 537 541 599 586 533 661 739 689 771 877 1020 1450 2087 2090 2411 2510 1961 2058 2123 2174 2447 2545 2683 3010 3219 3139 2851 2746 2955 2792 3146 3262 3290 3344 3037
0 0 6 33 0 0 0 24 4 0 0 0 2 0 0 0 0 2 18 174 28 30 47 42 30 30 24 21 16 11 5 3 0 0 1 2 0 0 0 0 0 0 3 10 21 50 70 161 240 318 391 506 551 575 745 746 695 686 682 587 603 700 748 914 1238 1578 2084 2363 1979 1932 2008 2092 2260 2440 2681 2846 3023 3134 3047 3028 2574 2170 3183 3403 2643 2449 2403
21 12 1 0 0 0 0 0 0 0 0 0 0 0 0 24 29 12 12 54 13 43 58 44 20 26 4 3 0 0 2 1 1 1 0 0 0 0 0 0 1 6 7 24 127 216 264 278 360 479 588 618 648 657 747 799 873 772 674 628 564 540 617 730 826 1084 1653 2538 2353 1887 1883 1915 1982 2195 2498 2540 2628 2899 2713 2653 2832 2410 2255 2069 2237 2181 2285
0 0 0 0 0 0 0 0 0 0 0 0 0 0 31 30 37 40 64 20 51 34 34 14 20 1 0 0 0 0 0 0 0 0 0 0 0 0 0 4 9 32 71 166 242 339 465 585 668 708 711 698 756 840 821 886 876 726 676 686 710 676 669 669 726 894 1136 1934 2658 2356 2127 1910 1981 1970 1998 1719 1964 2480 2354 2499 2731 2526 2738 2452 2535 2133 2627
0 12 0 0 0 0 0 0 0 0 0 2 30 65 63 50 73 47 69 46 32 43 16 8 11 1 0 0 0 0 0 0 0 0 0 0 1 10 56 99 154 240 315 358 447 517 528 645 743 741 821 901 889 865 859 745 703 694 698 779 852 803 688 683 710 730 915 1175 2386 2711 2539 2393 1793 1588 1638 1740 1806 1886 2367 2318 2263 2196 2501 2446 2096 2428 3171
0 50 0 3 0 0 0 0 0 0 8 43 67 60 78 103 115 96 51 31 2 1 1 2 6 1 0 0 0 0 0 0 0 0 0 13 41 106 213 317 396 474 531 563 589 521 505 571 674 732 727 809 936 978 917 887 816 798 776 802 756 744 658 731 792 806 702 636 1122 2170 2736 2568 2160 1552 1279 1225 1288 1523 1891 2169 1817 1837 2247 1851 2266 2217 2573
0 0 2 9 4 1 12 7 2 8 5 4 34 59 32 1 13 23 10 1 1 0 0 0 2 2 0 2 2 0 0 0 0 0 0 31 131 240 345 403 431 496 385 384 410 476 478 476 503 583 748 801 828 991 907 906 907 926 816 858 800 929 878 806 913 958 953 744 565 1028 2388 2544 2374 1717 1733 1094 918 1073 1250 1856 2008 2144 1666 2077 1807 2301 2314
9 25 20 3 11 27 8 2 2 10 45 41 21 28 20 11 7 11 6 2 0 0 0 0 0 0 3 1 0 0 0 0 0 0 10 92 189 230 264 318 319 383 407 503 425 440 464 553 561 594 636 642 677 852 950 959 811 878 912 855 775 845 899 911 908 964 939 675 458 514 1626 2167 2193 1993 2050 2095 1971 1582 1184 1795 1822 1719 1558 1971 2442 2111 2291
7 10 29 21 10 2 17 14 18 44 38 24 35 36 37 16 6 2 4 2 4 4 6 0 0 0 0 1 0 3 0 0 0 5 89 215 340 297 215 237 270 354 374 433 469 486 510 518 546 593 649 659 679 692 787 883 889 844 951 941 947 905 906 793 766 957 1030 923 795 830 749 1004 1524 1485 1446 2606 1725 1402 1158 1354 1357 1203 1170 1182 1032 876 1512
4 10 11 9 11 11 0 6 26 36 119 85 40 14 10 14 15 18 13 12 2 5 1 0 0 0 0 0 0 0 0 0 11 98 161 202 276 246 228 203 319 379 411 462 498 528 529 555 597 639 576 659 641 667 756 863 802 903 956 1004 992 994 1015 1070 1124 1224 1390 1339 1226 1083 948 825 831 1262 1119 990 1336 1820 1403 1318 891 760 810 812 799 796 829
36 50 44 33 24 14 4 4 26 61 125 79 61 27 21 33 28 14 10 14 9 4 0 0 0 0 0 0 0 0 1 39 144 158 184 276 252 192 225 245 301 393 391 416 464 522 531 567 609 531 686 694 642 550 859 893 870 940 955 921 1022 1058 1125 1040 1120 1160 1248 1285 1276 1212 1074 843 849 928 950 753 500 573 2556 1396 1184 1181 983 893 855 833 802
163 104 95 65 47 55 38 19 49 72 38 58 56 47 38 14 8 25 26 18 12 6 9 6 1 0 0 0 4 12 80 184 209 202 260 288 229 209 288 256 281 388 320 411 444 466 474 552 623 665 744 725 586 497 522 675 733 830 793 850 900 1009 1080 1172 1330 1294 1264 1197 1224 1152 1071 1057 1007 877 815 810 762 592 490 463 1322 1406 1162 1131 1181 1105 993
167 140 47 33 42 53 65 58 69 63 68 63 58 50 26 22 16 12 8 10 7 2 3 9 0 0 2 6 55 146 195 182 223 245 204 231 248 244 212 227 223 283 265 324 376 394 465 522 544 586 579 562 548 442 562 641 794 865 892 984 985 970 983 1095 1210 1209 1191 1290 1144 1143 1134 1067 900 812 675 803 828 726 608 393 361 388 528 1345 1538 1353 1343
218 155 70 50 53 53 73 60 72 91 66 20 28 27 13 3 1 3 0 0 6 8 0 0 0 5 32 58 130 153 181 232 290 174 207 228 216 208 188 180 171 253 249 293 380 358 435 471 414 414 422 358 326 503 504 625 762 911 869 898 1082 1110 1062 1086 1001 1230 1203 1035 1056 1027 985 926 807 641 582 570 480 528 454 455 456 415 395 409 794 1207 1404
168 140 128 132 105 96 72 56 40 33 26 20 27 36 17 8 0 0 0 0 2 2 0 8 30 60 110 114 92 343 336 278 315 429 358 324 188 128 138 72 140 196 223 240 229 262 263 296 297 305 376 380 396 535 586 641 740 784 738 888 975 1050 1110 955 1002 1023 1288 1224 1144 1093 819 796 672 596 507 440 398 419 469 471 530 355 272 402 442 582 1662
122 93 55 71 65 37 24 20 36 25 19 36 31 33 8 1 0 0 0 0 0 0 9 24 82 121 180 366 576 693 737 703 519 385 215 102 83 75 45 20 36 44 44 58 134 179 307 352 413 384 374 324 359 372 346 501 595 789 835 942 1092 1152 1204 1266 1300 1076 835 837 1167 760 701 836 971 916 695 622 646 599 617 605 485 356 371 336 344 481 774
170 91 28 39 33 17 5 18 34 14 6 8 8 0 0 3 2 4 1 2 1 8 32 98 194 457 624 676 460 460 470 542 358 61 42 9 9 15 15 25 24 15 18 21 74 80 100 95 147 201 264 250 217 273 271 314 454 589 776 882 1064 794 549 596 657 704 758 854 806 865 950 861 848 805 725 637 460 429 588 582 596 493 383 336 306 369 792
66 32 10 27 4 1 5 20 20 14 4 0 0 0 1 2 5 6 7 15 31 60 214 433 500 459 536 599 657 516 370 276 68 24 8 15 28 24 17 30 8 11 28 25 19 6 8 18 50 44 63 117 214 218 213 230 372 486 630 682 822 1101 692 481 529 373 847 834 529 488 790 764 808 688 686 545 518 584 643 639 597 506 456 541 663 1109 1169
68 79 75 70 41 27 28 22 6 8 2 0 0 3 5 1 7 15 34 94 244 455 242 192 155 187 140 336 399 272 53 22 15 11 9 22 19 28 22 20 28 33 26 18 33 31 34 27 14 7 26 67 42 211 232 236 238 250 364 785 474 570 619 666 683 544 496 322 712 870 1037 702 853 1057 852 700 718 695 710 578 782 943 1026 1160 1287 1505 1722
77 85 73 53 14 5 0 0 0 0 0 1 4 2 7 2 7 33 315 412 56 206 490 503 440 491 365 288 198 16 9 11 7 20 21 24 28 34 37 34 31 25 26 25 4 5 10 16 15 13 18 50 25 113 394 409 570 516 171 59 313 280 352 440 473 476 435 557 842 889 790 621 559 704 908 1076 1052 1040 964 1010 968 924 958 1121 1214 1376 1405
61 41 12 6 9 5 1 0 0 0 1 6 3 2 1 29 343 556 551 529 442 268 392 545 486 282 96 47 16 26 18 23 22 22 26 26 33 30 38 34 24 38 20 6 3 19 18 19 16 26 64 67 31 204 309 593 486 201 404 712 796 789 695 569 620 106 342 340 428 562 414 734 929 738 790 1107 651 740 770 858 1054 1124 1274 1257 905 870 1323
10 29 32 31 30 18 2 0 0 0 0 3 14 46 338 726 739 553 439 381 250 314 352 299 166 35 67 20 15 5 11 18 22 26 30 29 26 33 30 22 30 25 5 9 22 16 15 20 29 39 59 121 100 111 282 595 453 828 241 471 778 815 763 408 625 685 559 676 497 627 450 539 503 759 804 759 906 894 728 730 816 1035 1276 1202 1114 1271 1310
39 52 55 40 37 30 23 15 18 32 72 187 586 744 848 727 648 558 404 387 371 342 260 46 22 10 19 30 15 21 21 24 27 23 11 13 16 6 6 16 29 6 9 11 10 12 23 40 38 21 16 20 21 26 73 159 195 254 203 380 546 342 35 253 333 743 1023 1244 1137 988 708 566 491 656 926 1047 925 621 922 655 587 834 909 905 915 1255 1332
38 41 44 40 37 34 98 167 288 328 530 696 882 812 654 523 433 338 303 231 172 98 32 28 18 17 20 37 27 15 16 12 8 8 9 8 8 5 8 11 9 8 9 10 14 14 18 30 19 11 10 16 9 15 17 33 32 89 33 10 189 190 176 140 208 168 268 502 921 1118 1029 628 434 442 577 716 660 550 486 618 671 761 763 874 1162 1293 1246
64 72 78 57 32 44 168 479 727 905 863 892 709 554 530 379 303 148 193 65 31 71 22 25 33 28 26 18 14 9 7 6 8 7 6 6 8 7 8 6 4 6 7 17 11 8 18 19 16 7 9 10 6 7 14 28 25 12 7 16 14 58 179 91 28 69 182 186 204 366 893 802 372 291 385 1061 1315 709 885 635 585 910 938 1128 1123 978 935
82 72 60 47 39 71 342 829 895 969 752 258 176 334 248 186 134 32 13 35 38 42 38 36 26 22 15 9 7 6 6 7 5 4 5 5 7 5 4 3 5 6 11 21 12 13 18 19 11 8 11 11 9 13 10 16 10 7 6 6 9 12 16 19 16 16 15 23 154 144 252 140 222 194 182 268 397 804 1084 864 835 397 186 362 843 1084 735
70 68 57 43 44 74 654 974 978 911 603 283 292 170 99 44 30 39 28 26 26 21 14 17 11 7 11 9 9 8 6 1 2 4 9 8 5 5 4 4 4 7 11 16 15 16 13 10 15 9 15 9 8 22 12 11 10 4 4 4 6 7 6 8 11 14 17 13 15 13 10 10 8 8 8 14 125 85 258 545 765 306 134 141 261 362 216
52 56 67 32 66 355 977 1000 924 631 429 376 259 58 28 21 26 21 22 15 11 7 6 1 2 5 7 6 6 0 0 0 0 1 7 9 8 6 5 4 6 6 16 13 12 9 8 7 8 14 13 11 12 18 12 9 9 6 4 3 5 7 10 11 8 6 9 8 6 6 7 6 7 6 8 6 7 9 154 198 81 239 249 209 234 196 276
51 61 74 117 264 722 1063 1002 718 458 358 211 63 26 8 10 9 24 18 18 9 8 6 1 2 0 0 0 2 2 2 0 0 0 0 4 8 6 8 14 14 11 11 9 10 8 8 7 6 5 14 17 14 14 8 6 4 4 5 4 6 8 7 6 8 10 7 6 4 4 4 5 6 7 7 7 7 9 11 9 10 7 5 5 5 6 11
82 104 201 353 441 971 1004 831 559 396 256 36 21 2 1 3 20 37 31 25 18 9 6 0 0 0 0 0 4 4 5 3 0 0 0 0 0 0 2 8 13 14 10 9 6 7 8 9 8 12 12 9 8 8 5 5 6 6 5 4 5 3 4 5 5 6 6 7 6 7 9 8 4 4 4 5 6 7 7 6 6 7 8 6 3 2 1
177 257 466 552 618 1062 916 699 590 400 64 9 2 0 2 15 40 38 37 34 28 15 11 10 7 5 4 5 8 11 11 9 4 3 0 0 0 0 0 0 4 7 9 6 4 4 6 9 12 15 11 8 7 4 2 3 3 3 3 3 2 2 4 4 6 5 7 6 6 7 7 5 4 4 4 6 10 6 5 5 5 5 4 3 2 2 2
218 490 619 557 1012 1060 794 670 377 68 2 1 0 0 4 34 34 29 29 32 28 22 21 19 19 14 15 10 12 12 13 8 8 5 3 0 1 1 0 2 0 4 3 1 1 1 2 11 9 7 5 6 4 0 1 1 1 0 1 1 1 0 0 1 3 4 4 4 5 6 6 4 4 5 6 6 5 5 5 10 7 10 6 6 4 5 3
464 604 662 777 1135 862 582 455 84 5 0 1 0 2 10 33 36 30 28 33 35 35 30 28 24 18 20 15 11 13 5 3 9 8 7 5 0 0 0 0 1 1 0 0 0 0 2 6 8 6 6 5 3 0 0 1 2 1 1 1 1 1 1 1 1 2 3 3 5 4 6 6 4 2 6 6 4 5 6 6 4 3 5 5 4 4 5
592 715 669 936 1097 651 473 370 23 1 0 1 4 12 23 25 33 30 34 44 46 37 27 30 26 29 26 19 19 17 12 12 11 7 10 9 4 0 0 0 0 0 0 0 0 0 0 2 4 1 1 2 1 0 0 1 4 5 4 4 1 1 0 1 1 1 1 2 3 1 3 3 2 3 3 4 3 4 5 4 4 3 3 2 2 3 3
724 803 746 1123 958 634 565 215 25 10 18 5 3 16 29 34 30 40 47 41 40 33 19 25 23 33 26 21 18 12 12 16 17 12 11 6 1 0 0 0 0 0 0 0 0 0 0 0 2 2 1 0 0 3 3 1 2 6 6 6 7 4 3 1 0 1 3 6 8 12 14 13 12 4 4 3 4 3 3 1 3 6 8 4 3 3 3
790 757 947 1253 996 906 472 35 2 15 19 6 8 13 36 22 23 25 23 29 23 31 22 17 20 21 16 13 10 13 17 14 11 10 8 5 5 0 0 0 0 0 0 0 0 0 0 0 1 4 3 0 0 1 4 4 4 4 4 3 4 5 8 6 1 5 4 1 2 12 6 4 2 4 3 8 8 3 2 2 2 4 6 5 18 15 5
802 813 1296 1261 874 831 453 66 7 12 10 2 3 14 27 37 25 14 16 16 32 25 17 19 20 16 12 8 2 4 7 7 6 6 4 2 7 1 0 0 0 0 0 0 0 0 0 0 0 2 2 1 0 0 1 3 3 3 5 3 4 4 5 5 7 8 8 14 6 2 3 3 2 2 4 10 10 5 3 4 3 4 7 10 9 5 1
1002 1072 1432 1173 841 533 119 0 0 0 2 12 15 20 28 35 23 22 24 22 18 14 19 16 14 16 10 9 0 0 0 0 3 0 2 2 0 0 0 0 0 0 0 0 0 0 0 0 0 0 1 1 2 0 2 3 3 3 4 8 8 6 9 8 7 5 5 4 4 3 5 5 3 1 3 7 7 6 6 5 3 3 6 8 6 2 1
Wind_Speed
nan nan nan nan nan nan 21 21 22 23 28 25 nan nan 27 26 nan nan 37 35 40 39 39 38 39 40 42 43 44 44 44 44 45 44 44 44 44 43 42 40 40 41 41 41 40 39 38 36 35 31 30 30 30 29 28 27 26 23 22 20 22 25 28 29 27 22 17 15 18 20 20 21 21 21 21 20 18 16 14 13 10 9 7 7 10 12 13
nan nan nan nan nan 22 22 23 25 26 24 26 26 26 28 nan 29 34 39 42 43 41 41 40 41 40 42 42 42 42 43 43 42 42 42 42 42 42 42 41 40 39 39 40 40 40 38 38 37 35 32 30 30 30 29 28 28 27 24 22 21 23 25 29 29 29 26 24 23 22 20 18 17 17 19 20 19 17 15 14 12 11 10 9 9 10 11
nan nan nan nan nan 19 nan 24 22 23 24 25 28 27 29 30 32 37 39 40 40 39 40 42 40 39 39 40 40 41 40 39 39 40 41 42 42 42 41 41 40 40 41 41 41 40 38 37 39 38 35 33 31 31 31 31 30 29 27 25 22 22 24 26 29 27 24 23 21 20 21 19 16 15 15 16 17 17 16 15 14 13 12 11 11 11 11
nan nan nan nan nan nan nan 18 19 19 21 nan 25 24 27 22 27 29 33 33 36 36 37 38 37 36 36 37 35 36 36 38 39 39 42 44 44 43 42 41 41 41 41 42 42 40 37 36 38 38 37 35 34 33 32 32 31 29 28 27 26 24 24 26 28 28 22 21 21 21 21 20 18 16 14 14 14 14 14 15 14 14 14 13 14 13 12
nan nan nan nan nan nan nan nan 19 22 24 25 28 28 25 22 23 25 26 32 38 36 34 34 34 32 31 32 34 33 34 37 37 39 41 43 44 43 42 41 40 39 36 36 38 39 37 35 36 37 37 36 35 35 34 33 31 31 29 28 27 26 25 26 28 30 28 23 20 21 22 20 20 17 16 14 13 13 14 13 13 14 14 14 14 13 12
nan nan nan nan nan nan 21 29 27 24 25 25 26 29 29 29 25 30 33 39 40 38 34 33 34 30 33 35 35 33 33 34 36 nan nan nan 40 40 40 38 37 36 33 32 32 34 35 34 34 35 36 35 34 35 36 35 35 33 30 29 28 27 26 26 27 29 30 28 24 21 21 21 21 18 16 14 12 11 11 12 13 13 13 13 13 14 13
nan nan nan nan nan 23 34 29 32 31 31 32 36 36 34 34 34 35 40 41 38 35 32 33 33 34 34 32 33 34 34 32 33 36 39 39 38 37 37 36 36 nan nan nan 30 30 32 33 34 34 34 34 32 34 37 38 37 34 32 30 28 28 27 26 27 29 31 32 29 26 24 22 19 18 16 16 15 13 12 12 13 13 14 13 13 13 13
nan nan nan nan nan 36 33 35 34 37 36 39 39 37 34 33 33 33 36 36 35 32 31 31 32 30 30 30 31 nan nan nan nan nan nan nan nan nan nan nan nan nan nan nan nan 32 33 33 nan 34 35 35 33 34 36 39 39 38 35 33 31 28 26 27 28 30 31 33 35 33 30 26 22 20 18 16 17 16 14 13 13 13 14 14 14 14 14
nan nan nan nan 35 32 36 32 33 30 32 31 27 26 31 29 30 30 36 38 36 34 32 32 30 29 29 29 33 nan nan nan nan nan nan nan nan nan nan nan nan nan nan nan nan nan nan 34 nan 36 37 37 37 37 38 40 40 41 40 38 36 33 30 27 28 30 31 33 33 33 34 28 23 21 19 17 16 18 17 15 13 12 13 15 16 16 16
nan nan nan nan nan nan 32 32 34 nan nan nan nan 26 29 27 30 31 33 36 36 35 nan nan 32 31 29 30 33 nan nan nan nan nan nan nan nan nan nan nan nan nan nan nan nan nan nan 34 35 37 38 40 40 40 41 41 41 42 43 42 39 37 35 32 30 30 31 32 32 29 27 29 27 24 23 24 20 19 19 19 15 14 14 14 15 15 16
nan nan nan nan nan 29 29 nan nan nan nan nan nan nan 25 30 29 nan nan 33 nan nan nan nan nan nan 27 nan nan nan nan nan nan nan nan nan nan nan nan nan nan nan nan nan nan nan nan nan nan nan 40 41 41 42 43 43 43 43 43 42 39 37 36 34 32 32 33 34 34 31 27 25 23 22 22 23 23 24 21 20 19 18 16 16 15 16 16
nan nan nan nan 26 30 nan nan nan nan nan nan nan nan 26 32 nan nan nan nan nan nan nan nan nan nan nan nan nan nan nan nan nan nan nan nan nan nan nan nan nan nan nan nan nan nan nan nan nan 39 41 42 42 43 44 45 45 45 45 43 39 37 36 35 35 35 33 34 34 32 28 25 24 22 22 23 24 23 23 21 21 22 20 19 17 17 18
nan nan nan nan 32 nan nan nan nan nan nan 26 22 19 30 nan nan nan nan nan nan nan nan nan nan nan nan nan nan nan nan nan nan nan nan nan nan nan nan nan nan nan nan nan nan nan nan nan 36 37 39 40 41 42 43 44 44 45 46 45 42 40 38 37 36 37 36 34 34 34 31 28 25 23 23 22 24 24 23 22 23 22 22 22 20 20 20
nan nan nan nan 32 nan nan nan nan nan nan 23 nan 31 nan nan nan nan nan nan nan nan nan nan nan nan nan nan nan nan nan nan nan nan nan nan nan nan nan nan nan nan nan nan nan nan nan nan 33 35 36 36 38 39 41 41 44 45 46 45 44 42 40 37 37 38 38 36 36 35 33 29 25 22 23 23 23 23 25 23 21 22 24 24 24 23 23
nan nan nan nan nan nan nan nan nan nan 20 31 nan nan nan nan nan nan nan nan nan nan nan nan nan nan nan nan nan nan nan nan nan nan nan nan nan nan nan nan nan nan nan nan nan nan 32 32 32 33 33 33 35 37 38 39 43 44 45 45 44 42 40 38 37 38 39 37 37 38 36 32 27 24 23 23 24 25 24 22 21 23 26 28 28 26 24
nan nan nan nan nan nan nan nan nan nan nan nan nan nan nan nan nan nan nan 39 nan nan nan nan nan nan nan nan nan nan nan nan nan nan nan nan nan nan nan nan nan nan nan nan nan nan nan 31 32 32 33 32 33 34 34 39 42 43 44 45 45 43 42 40 38 38 40 39 37 39 40 36 32 28 26 24 24 26 26 26 27 25 28 31 31 27 23
nan nan nan nan nan nan nan nan nan nan nan nan nan nan nan nan nan nan nan nan nan nan nan nan nan nan nan nan nan nan nan nan nan nan nan nan nan nan nan nan nan nan nan nan 30 29 30 29 31 32 33 32 31 30 33 37 39 40 42 43 45 44 43 41 39 38 40 39 37 38 41 40 35 33 29 28 25 26 27 27 29 28 29 27 26 25 25
nan nan nan nan nan nan nan nan nan nan nan nan nan nan nan nan nan nan nan nan nan nan nan nan nan nan nan nan nan nan nan nan nan nan nan nan nan nan nan nan nan nan nan 29 28 26 26 27 29 30 31 31 28 29 32 34 35 37 38 40 42 44 44 42 40 38 38 39 38 37 40 40 38 35 33 31 29 29 28 28 30 29 29 30 28 25 26
nan nan nan nan nan nan nan nan nan nan nan nan nan nan nan nan nan nan nan nan nan nan nan nan nan nan nan nan nan nan nan nan nan nan nan nan nan nan nan nan 29 29 28 27 26 25 24 25 27 27 26 27 26 26 27 28 30 32 35 36 37 40 42 42 41 39 38 40 40 39 38 40 38 36 35 33 31 29 29 30 29 28 28 29 29 29 30
nan nan nan nan nan nan nan nan nan nan nan nan nan nan nan 36 37 nan nan nan nan nan nan nan nan nan nan nan nan nan nan nan nan nan nan nan nan 26 26 26 27 26 27 26 25 24 24 25 26 26 26 25 25 25 25 26 27 28 29 31 33 36 38 40 41 39 38 37 38 39 38 39 39 37 35 34 32 32 32 31 30 28 28 28 31 31 32
nan nan nan nan nan nan nan nan nan nan nan nan nan nan nan nan nan nan nan nan nan nan nan nan nan nan nan nan nan nan nan nan nan nan nan nan 23 23 23 24 25 26 26 25 25 24 24 24 24 24 23 23 24 25 26 28 28 27 27 27 29 31 34 37 38 38 37 38 38 39 39 38 38 36 35 34 34 34 33 34 32 30 29 30 29 30 30
nan nan nan nan nan nan nan nan nan nan nan nan nan nan nan nan nan nan nan nan nan nan nan nan nan nan nan nan nan nan nan nan nan nan nan nan 20 20 21 23 22 22 22 22 21 20 21 23 22 21 20 20 22 24 25 27 28 27 26 26 26 28 31 34 36 36 37 37 38 39 39 39 38 37 35 34 34 34 35 35 34 32 34 30 31 32 28
nan nan nan nan nan nan nan nan nan nan nan nan nan nan nan nan nan nan nan nan nan nan nan nan nan nan nan nan nan nan nan nan nan nan nan 19 19 19 18 18 17 18 18 18 18 18 19 21 20 19 19 18 20 21 23 25 25 25 25 25 25 26 27 30 33 35 36 37 37 38 37 37 37 36 36 36 32 28 29 29 32 32 29 27 27 27 29
nan nan nan nan nan nan nan nan nan nan 31 nan nan nan nan nan nan nan nan nan nan nan nan nan nan nan nan nan nan nan nan nan nan nan 20 18 17 17 17 16 16 16 18 19 19 19 20 20 19 18 18 18 20 21 22 22 23 24 23 23 23 23 24 27 29 32 33 34 36 36 36 36 35 35 35 34 34 31 26 27 26 25 25 23 24 25 25
nan nan nan nan nan nan nan nan nan nan 29 nan nan nan nan nan nan nan nan nan nan nan nan nan nan nan nan nan nan nan nan nan 21 20 18 17 17 16 16 16 17 19 21 22 22 21 20 19 18 17 17 17 19 19 21 22 22 22 22 22 21 21 22 22 25 27 29 31 33 35 35 35 34 35 34 34 32 33 33 29 26 26 24 23 23 25 25
35 33 nan nan nan nan nan nan nan nan nan nan nan nan nan nan nan nan nan nan nan nan nan nan nan nan nan nan nan nan nan 20 19 17 17 17 17 17 17 18 20 22 21 21 21 20 19 17 17 16 16 16 18 18 19 20 20 19 19 20 19 20 21 21 22 24 26 28 31 33 34 34 34 33 34 33 33 32 32 33 32 30 27 24 23 25 26
34 31 nan nan nan nan nan nan nan nan nan nan nan nan nan nan nan nan nan nan nan nan nan nan nan nan nan nan nan 19 18 17 15 16 17 16 15 17 19 19 20 20 19 20 21 20 18 18 17 17 16 16 17 17 17 17 18 18 17 18 19 17 12 15 18 19 21 24 27 30 32 33 32 32 31 32 32 31 32 32 31 31 32 31 28 27 28
33 31 nan nan nan nan nan nan nan nan nan nan nan nan nan nan nan nan nan nan nan nan nan nan nan nan nan nan 20 17 15 14 14 15 15 16 17 19 20 20 19 19 20 21 21 21 21 19 18 16 16 16 17 16 16 16 17 16 16 16 17 18 18 16 17 17 18 21 24 27 29 30 31 31 31 31 31 31 31 31 31 31 31 30 32 34 29
31 30 29 28 26 nan nan nan nan nan nan nan nan nan nan nan nan nan nan nan nan nan nan nan nan nan 21 20 nan 15 13 12 13 14 16 18 18 19 20 nan 19 18 19 19 19 19 18 17 17 16 17 17 17 17 16 16 15 15 15 16 17 16 17 18 18 17 18 20 22 24 27 28 29 29 30 29 29 29 29 30 30 31 30 32 32 33 39
30 nan nan nan nan nan nan nan nan nan nan nan nan nan nan nan nan nan nan nan nan nan nan nan nan 19 19 18 17 14 13 12 14 15 16 18 nan nan nan nan nan nan nan nan 15 14 13 14 15 15 16 17 16 16 15 15 15 13 13 14 15 15 15 17 18 18 17 18 21 22 24 24 26 27 28 28 28 27 28 28 29 30 30 31 32 32 31
27 nan nan nan nan nan nan nan nan nan nan nan nan nan nan nan nan nan nan nan nan nan nan nan 18 16 16 16 15 13 12 13 13 nan nan nan nan nan nan nan nan nan nan nan nan nan nan nan 13 14 15 14 13 13 13 13 14 12 13 15 16 13 11 11 13 15 15 16 17 20 22 23 24 25 26 26 26 26 26 27 27 28 29 31 32 32 32
nan nan nan nan nan nan nan nan nan nan nan nan nan nan nan nan nan nan nan nan nan nan 14 14 14 14 14 14 13 13 13 13 nan nan nan nan nan nan nan nan nan nan nan nan nan nan nan nan nan nan nan 13 12 10 12 12 13 13 13 13 14 15 13 14 16 15 15 16 17 18 21 23 24 24 25 25 25 25 25 25 25 27 29 31 32 33 34
nan nan nan nan nan nan nan nan nan nan nan nan nan nan nan nan nan nan nan nan 13 12 11 13 13 11 11 12 11 12 nan nan nan nan nan nan nan nan nan nan nan nan nan nan nan nan nan nan nan nan nan nan nan 10 10 10 10 12 12 16 15 13 12 14 16 16 15 14 16 18 20 21 22 24 24 25 26 26 26 25 25 27 28 30 32 34 35
nan nan nan nan nan nan nan nan nan nan nan nan nan nan nan nan nan nan 16 15 nan 9 11 11 10 9 9 10 10 nan nan nan nan nan nan nan nan nan nan nan nan nan nan nan nan nan nan nan nan nan nan nan nan 9 12 13 13 13 13 nan 13 14 14 16 16 14 15 16 17 19 21 21 22 23 24 25 26 26 26 26 26 26 28 29 32 33 38
nan nan nan nan nan nan nan nan nan nan nan nan nan nan nan nan 16 16 16 11 9 9 9 9 9 9 nan nan nan nan nan nan nan nan nan nan nan nan nan nan nan nan nan nan nan nan nan nan nan nan nan nan nan 9 11 12 13 12 11 13 12 12 13 14 16 16 16 18 19 22 22 23 24 23 22 24 25 25 26 26 27 27 28 29 31 33 36
nan nan nan nan nan nan nan nan nan nan nan nan nan nan 15 16 14 12 11 9 8 8 10 9 9 nan nan nan nan nan nan nan nan nan nan nan nan nan nan nan nan nan nan nan nan nan nan nan nan nan nan 9 nan 9 10 12 10 10 11 11 10 11 13 13 15 17 17 17 18 20 23 21 22 25 24 23 24 25 26 27 28 29 29 29 31 33 34
nan nan nan nan nan nan nan nan nan nan nan 13 14 14 13 13 12 10 8 7 8 10 10 nan nan nan nan nan nan nan nan nan nan nan nan nan nan nan nan nan nan nan nan nan nan nan nan nan nan nan nan nan nan nan nan 12 10 10 12 12 12 13 nan 15 15 14 15 16 16 18 19 20 20 21 23 24 24 23 26 28 30 30 31 30 32 33 35
nan nan nan nan nan nan nan 14 14 14 14 14 13 12 11 10 9 8 8 8 11 nan nan nan nan nan nan nan nan nan nan nan nan nan nan nan nan nan nan nan nan nan nan nan nan nan nan nan nan nan nan nan nan nan nan nan nan nan nan nan 14 15 17 19 19 18 15 15 19 20 19 20 20 19 20 25 27 28 29 28 27 29 32 33 33 33 35
nan nan nan nan nan nan 12 12 13 13 13 12 11 10 11 9 8 7 9 nan nan nan nan nan nan nan nan nan nan nan nan nan nan nan nan nan nan nan nan nan nan nan nan nan nan nan nan nan nan nan nan nan nan nan nan nan nan nan nan nan nan nan 16 nan nan nan 20 20 18 21 23 24 23 21 20 25 30 30 30 29 27 27 28 31 33 35 36
nan nan nan nan nan nan 11 11 12 12 13 11 6 8 9 8 8 nan nan nan nan nan nan nan nan nan nan nan nan nan nan nan nan nan nan nan nan nan nan nan nan nan nan nan nan nan nan nan nan nan nan nan nan nan nan nan nan nan nan nan nan nan nan nan nan nan nan nan 24 26 28 28 29 29 26 27 27 27 30 31 30 28 22 22 26 31 35
nan nan nan nan nan nan 11 11 11 10 11 9 7 9 nan nan nan nan nan nan nan nan nan nan nan nan nan nan nan nan nan nan nan nan nan nan nan nan nan nan nan nan nan nan nan nan nan nan nan nan nan nan nan nan nan nan nan nan nan nan nan nan nan nan nan nan nan nan nan nan nan nan nan nan nan nan 29 nan 28 30 33 36 36 32 29 31 38
nan nan nan nan nan 11 11 11 10 9 8 10 10 nan nan nan nan nan nan nan nan nan nan nan nan nan nan nan nan nan nan nan nan nan nan nan nan nan nan nan nan nan nan nan nan nan nan nan nan nan nan nan nan nan nan nan nan nan nan nan nan nan nan nan nan nan nan nan nan nan nan nan nan nan nan nan nan nan 32 33 nan 38 40 40 36 34 33
nan nan nan 10 11 10 11 11 10 7 8 11 nan nan nan nan nan nan nan nan nan nan nan nan nan nan nan nan nan nan nan nan nan nan nan nan nan nan nan nan nan nan nan nan nan nan nan nan nan nan nan nan nan nan nan nan nan nan nan nan nan nan nan nan nan nan nan nan nan nan nan nan nan nan nan nan nan nan nan nan nan nan nan nan nan nan nan
nan 10 9 10 9 10 11 11 9 9 12 nan nan nan nan nan nan nan nan nan nan nan nan nan nan nan nan nan nan nan nan nan nan nan nan nan nan nan nan nan nan nan nan nan nan nan nan nan nan nan nan nan nan nan nan nan nan nan nan nan nan nan nan nan nan nan nan nan nan nan nan nan nan nan nan nan nan nan nan nan nan nan nan nan nan nan nan
10 9 8 8 8 9 11 11 11 12 nan nan nan nan nan nan nan nan nan nan nan nan nan nan nan nan nan nan nan nan nan nan nan nan nan nan nan nan nan nan nan nan nan nan nan nan nan nan nan nan nan nan nan nan nan nan nan nan nan nan nan nan nan nan nan nan nan nan nan nan nan nan nan nan nan nan nan nan nan nan nan nan nan nan nan nan nan
8 8 8 8 9 11 11 12 13 nan nan nan nan nan nan nan nan nan nan nan nan nan nan nan nan nan nan nan nan nan nan nan nan nan nan nan nan nan nan nan nan nan nan nan nan nan nan nan nan nan nan nan nan nan nan nan nan nan nan nan nan nan nan nan nan nan nan nan nan nan nan nan nan nan nan nan nan nan nan nan nan nan nan nan nan nan nan
8 7 8 9 10 12 11 12 nan nan nan nan nan nan nan nan nan nan nan nan nan nan nan nan nan nan nan nan nan nan nan nan nan nan nan nan nan nan nan nan nan nan nan nan nan nan nan nan nan nan nan nan nan nan nan nan nan nan nan nan nan nan nan nan nan nan nan nan nan nan nan nan nan nan nan nan nan nan nan nan nan nan nan nan nan nan nan
6 6 8 10 12 12 11 14 nan nan nan nan nan nan nan nan nan nan nan nan nan nan nan nan nan nan nan nan nan nan nan nan nan nan nan nan nan nan nan nan nan nan nan nan nan nan nan nan nan nan nan nan nan nan nan nan nan nan nan nan nan nan nan nan nan nan nan nan nan nan nan nan nan nan nan nan nan nan nan nan nan nan nan nan nan nan nan
5 6 8 11 12 11 12 14 nan nan nan nan nan nan nan nan nan nan nan nan nan nan nan nan nan nan nan nan nan nan nan nan nan nan nan nan nan nan nan nan nan nan nan nan nan nan nan nan nan nan nan nan nan nan nan nan nan nan nan nan nan nan nan nan nan nan nan nan nan nan nan nan nan nan nan nan nan nan nan nan nan nan nan nan nan nan nan
5 7 8 11 11 8 11 nan nan nan nan nan nan nan nan nan nan nan nan nan nan nan nan nan nan nan nan nan nan nan nan nan nan nan nan nan nan nan nan nan nan nan nan nan nan nan nan nan nan nan nan nan nan nan nan nan nan nan nan nan nan nan nan nan nan nan nan nan nan nan nan nan nan nan nan nan nan nan nan nan nan nan nan nan nan nan nan
5 6 7 9 8 7 11 nan nan nan nan nan nan nan nan nan nan nan nan nan nan nan nan nan nan nan nan nan nan nan nan nan nan nan nan nan nan nan nan nan nan nan nan nan nan nan nan nan nan nan nan nan nan nan nan nan nan nan nan nan nan nan nan nan nan nan nan nan nan nan nan nan nan nan nan nan nan nan nan nan nan nan nan nan nan nan nan
5 5 6 7 7 10 13 nan nan nan nan nan nan nan nan nan nan nan nan nan nan nan nan nan nan nan nan nan nan nan nan nan nan nan nan nan nan nan nan nan nan nan nan nan nan nan nan nan nan nan nan nan nan nan nan nan nan nan nan nan nan nan nan nan nan nan nan nan nan nan nan nan nan nan nan nan nan nan nan nan nan nan nan nan nan nan nan
Wind_Direction
nan nan nan nan nan nan 269 272 270 272 275 281 nan nan 265 268 nan nan 280 282 285 284 283 283 282 282 280 278 276 275 273 274 274 273 272 272 274 275 275 276 279 282 284 285 286 285 282 277 274 274 278 281 283 284 285 288 291 294 296 301 305 310 313 315 331 354 1 359 351 351 359 6 4 358 352 352 356 356 354 357 355 349 328 294 273 269 264
nan nan nan nan nan 277 276 274 271 270 271 270 270 270 270 nan 273 275 279 280 280 282 284 285 285 281 279 279 279 278 275 273 272 271 269 267 269 271 272 273 274 276 277 280 281 281 280 277 275 275 276 277 279 279 278 281 285 290 293 294 295 302 308 310 325 342 355 355 347 346 352 1 359 356 351 348 350 353 352 351 349 343 337 333 314 299 295
nan nan nan nan nan 279 nan 274 274 276 272 269 268 268 273 275 278 279 281 281 281 279 281 284 283 281 280 275 273 272 271 267 263 265 267 268 268 268 267 268 269 271 271 273 274 272 271 273 274 276 275 275 276 276 277 276 279 283 287 289 288 292 297 302 312 324 337 340 336 337 337 345 344 344 347 345 346 348 345 342 340 334 330 330 327 318 315
nan nan nan nan nan nan nan 279 282 282 277 nan 276 275 272 273 279 285 286 284 282 284 286 285 282 279 274 270 265 264 264 261 259 259 262 266 266 265 264 264 264 265 265 267 267 266 263 266 270 273 273 273 274 274 275 274 275 279 281 286 288 289 292 296 303 310 317 325 327 324 325 331 336 332 330 333 335 336 335 334 329 323 320 321 319 317 315
nan nan nan nan nan nan nan nan 295 278 270 267 272 272 276 274 270 286 283 274 279 289 287 286 281 274 271 265 266 266 263 263 264 265 265 267 267 267 266 267 267 266 267 267 266 262 260 261 267 270 270 269 271 273 273 274 275 275 276 279 284 287 290 294 298 304 309 312 317 315 312 319 320 318 319 319 322 323 325 322 318 320 317 317 314 310 309
nan nan nan nan nan nan 287 271 277 278 279 283 285 279 278 279 279 272 267 277 285 289 286 280 274 272 269 271 274 272 268 266 266 nan nan nan 269 268 268 270 271 271 272 270 265 258 254 258 265 268 265 265 268 273 275 275 274 273 274 276 280 282 287 291 294 297 302 307 308 304 298 301 306 311 309 306 301 302 305 308 310 310 311 314 309 307 308
nan nan nan nan nan 292 281 288 284 287 283 283 283 284 283 282 279 277 278 280 285 283 279 279 280 278 280 278 273 272 272 272 269 269 270 268 267 267 268 267 265 nan nan nan 260 251 249 254 263 263 260 259 265 270 273 274 272 272 272 272 274 277 280 282 286 292 296 298 297 293 288 285 291 302 312 308 297 290 291 297 301 303 301 302 299 298 298
nan nan nan nan nan 283 289 285 283 281 287 287 291 286 284 283 279 279 280 279 280 283 284 282 283 285 282 280 278 nan nan nan nan nan nan nan nan nan nan nan nan nan nan nan nan 255 256 259 nan 259 256 257 261 266 270 272 272 271 271 271 272 273 273 278 283 286 289 293 295 294 290 291 297 302 303 304 297 286 283 283 287 290 291 293 295 294 292
nan nan nan nan 286 298 293 293 293 295 292 296 294 286 288 284 285 281 282 285 285 286 283 283 285 287 287 286 283 nan nan nan nan nan nan nan nan nan nan nan nan nan nan nan nan nan nan 262 nan 258 257 257 261 265 267 268 269 271 271 271 269 269 270 271 275 278 281 284 285 289 291 290 289 284 286 287 283 281 275 272 278 283 287 287 287 288 288
nan nan nan nan nan nan 293 281 281 nan nan nan nan 286 289 288 284 280 281 283 284 284 nan nan 285 289 293 288 285 nan nan nan nan nan nan nan nan nan nan nan nan nan nan nan nan nan nan 257 259 259 258 259 261 263 263 263 265 268 268 269 268 268 268 270 271 272 272 271 273 276 280 287 288 284 277 275 275 279 282 277 274 272 275 278 281 283 285
nan nan nan nan nan 276 275 nan nan nan nan nan nan nan 294 283 280 nan nan 281 nan nan nan nan nan nan 290 nan nan nan nan nan nan nan nan nan nan nan nan nan nan nan nan nan nan nan nan nan nan nan 257 258 260 259 260 261 262 264 264 264 265 265 265 266 266 266 266 266 270 274 280 280 280 278 278 277 275 269 265 268 269 266 268 269 272 274 275
nan nan nan nan 270 278 nan nan nan nan nan nan nan nan 288 285 nan nan nan nan nan nan nan nan nan nan nan nan nan nan nan nan nan nan nan nan nan nan nan nan nan nan nan nan nan nan nan nan nan 255 257 260 259 258 258 258 259 260 260 260 262 264 265 264 265 265 263 261 265 268 268 269 271 275 275 276 273 271 270 269 270 267 265 265 270 269 272
nan nan nan nan 285 nan nan nan nan nan nan 290 299 286 277 nan nan nan nan nan nan nan nan nan nan nan nan nan nan nan nan nan nan nan nan nan nan nan nan nan nan nan nan nan nan nan nan nan 258 257 257 257 257 257 256 256 256 257 257 258 261 264 264 264 263 263 263 260 259 260 262 264 262 261 265 268 276 280 279 272 266 266 266 263 264 265 267
nan nan nan nan 274 nan nan nan nan nan nan 300 nan 277 nan nan nan nan nan nan nan nan nan nan nan nan nan nan nan nan nan nan nan nan nan nan nan nan nan nan nan nan nan nan nan nan nan nan 262 263 262 260 259 258 257 255 253 255 256 256 260 262 263 262 262 262 260 256 257 259 260 261 260 260 262 264 267 271 273 271 271 269 265 261 260 261 262
nan nan nan nan nan nan nan nan nan nan 292 281 nan nan nan nan nan nan nan nan nan nan nan nan nan nan nan nan nan nan nan nan nan nan nan nan nan nan nan nan nan nan nan nan nan nan 271 269 268 267 264 263 263 262 262 258 256 256 256 257 258 260 261 260 261 261 261 257 256 257 257 257 257 256 255 261 267 268 269 273 271 267 263 259 257 259 262
nan nan nan nan nan nan nan nan nan nan nan nan nan nan nan nan nan nan nan 289 nan nan nan nan nan nan nan nan nan nan nan nan nan nan nan nan nan nan nan nan nan nan nan nan nan nan nan 277 276 273 270 266 264 262 260 260 259 257 257 256 257 257 258 259 258 259 260 259 255 255 255 255 255 253 253 255 263 268 267 263 255 253 261 263 258 255 260
nan nan nan nan nan nan nan nan nan nan nan nan nan nan nan nan nan nan nan nan nan nan nan nan nan nan nan nan nan nan nan nan nan nan nan nan nan nan nan nan nan nan nan nan 282 283 284 283 280 279 276 273 268 263 260 259 259 258 255 254 255 255 255 255 255 256 259 260 257 253 254 255 254 253 251 251 256 262 263 263 260 255 253 257 263 263 261
nan nan nan nan nan nan nan nan nan nan nan nan nan nan nan nan nan nan nan nan nan nan nan nan nan nan nan nan nan nan nan nan nan nan nan nan nan nan nan nan nan nan nan 284 284 284 283 280 278 279 279 277 273 268 262 260 259 258 256 254 253 252 252 252 251 252 254 256 258 257 254 255 255 254 251 249 250 255 256 258 260 258 256 258 260 263 265
nan nan nan nan nan nan nan nan nan nan nan nan nan nan nan nan nan nan nan nan nan nan nan nan nan nan nan nan nan nan nan nan nan nan nan nan nan nan nan nan 279 282 281 281 281 279 276 275 275 276 276 276 275 272 268 263 261 259 258 256 253 252 251 250 248 248 249 254 255 257 257 256 256 256 255 251 248 247 252 256 257 256 256 254 257 261 262
nan nan nan nan nan nan nan nan nan nan nan nan nan nan nan 287 286 nan nan nan nan nan nan nan nan nan nan nan nan nan nan nan nan nan nan nan nan 278 278 279 280 281 282 282 281 279 278 277 278 278 278 277 274 271 268 266 263 260 261 260 255 252 250 249 248 247 247 248 252 255 257 258 256 254 254 252 249 248 248 253 254 254 254 253 252 254 259
nan nan nan nan nan nan nan nan nan nan nan nan nan nan nan nan nan nan nan nan nan nan nan nan nan nan nan nan nan nan nan nan nan nan nan nan 281 280 279 280 282 285 285 284 283 282 280 278 277 277 277 275 273 270 268 267 266 264 263 262 261 256 253 251 249 247 246 246 250 252 253 255 257 257 254 252 250 247 248 249 253 254 252 254 255 255 255
nan nan nan nan nan nan nan nan nan nan nan nan nan nan nan nan nan nan nan nan nan nan nan nan nan nan nan nan nan nan nan nan nan nan nan nan 280 279 280 282 282 284 285 284 282 281 282 281 279 278 277 276 274 273 270 268 266 266 265 265 263 262 258 253 250 248 246 244 245 248 251 251 252 254 260 265 256 251 246 249 251 248 254 255 254 254 253
nan nan nan nan nan nan nan nan nan nan nan nan nan nan nan nan nan nan nan nan nan nan nan nan nan nan nan nan nan nan nan nan nan nan nan 278 277 277 276 279 281 281 281 282 284 284 284 283 285 284 283 281 279 275 272 270 268 267 267 268 268 268 263 256 250 246 244 242 243 246 249 250 249 250 250 261 272 267 259 250 249 248 246 251 250 251 258
nan nan nan nan nan nan nan nan nan nan 285 nan nan nan nan nan nan nan nan nan nan nan nan nan nan nan nan nan nan nan nan nan nan nan 277 275 280 281 282 283 281 281 283 285 285 285 285 284 283 283 283 282 281 279 277 274 271 269 269 268 269 270 267 259 250 248 246 241 240 243 245 248 249 247 249 248 253 267 271 264 260 257 257 258 259 260 260
nan nan nan nan nan nan nan nan nan nan 288 nan nan nan nan nan nan nan nan nan nan nan nan nan nan nan nan nan nan nan nan nan 278 273 274 283 285 284 284 282 284 287 288 288 289 287 286 283 282 280 279 277 275 275 276 276 274 272 271 270 269 270 268 261 252 247 245 241 239 240 242 245 247 249 248 247 246 246 257 266 266 267 267 266 266 266 267
289 289 nan nan nan nan nan nan nan nan nan nan nan nan nan nan nan nan nan nan nan nan nan nan nan nan nan nan nan nan nan 278 273 274 280 280 279 279 280 282 285 288 288 288 287 284 281 277 278 279 278 275 273 274 275 276 276 274 272 272 270 269 268 262 252 246 242 240 238 237 239 242 244 245 246 246 244 243 243 247 256 258 259 261 263 265 265
291 289 nan nan nan nan nan nan nan nan nan nan nan nan nan nan nan nan nan nan nan nan nan nan nan nan nan nan nan 283 281 275 273 277 276 274 273 276 280 283 283 283 283 284 284 281 276 277 277 276 275 272 270 270 271 272 274 276 275 274 272 270 267 266 259 249 244 242 239 238 237 239 242 243 245 246 245 244 243 244 245 248 250 258 269 278 272
291 288 nan nan nan nan nan nan nan nan nan nan nan nan nan nan nan nan nan nan nan nan nan nan nan nan nan nan 287 284 277 272 271 271 273 276 277 281 284 283 285 285 286 286 284 279 276 274 271 268 267 267 267 269 271 273 275 278 277 275 273 272 267 265 262 253 245 240 239 237 236 238 239 240 241 243 244 243 243 243 244 247 250 252 252 267 279
292 293 293 293 292 nan nan nan nan nan nan nan nan nan nan nan nan nan nan nan nan nan nan nan nan nan 290 288 nan 275 271 269 268 269 275 279 282 284 285 nan 287 289 292 293 291 286 280 272 266 263 263 264 267 268 269 270 273 274 275 274 273 269 266 262 257 251 244 239 237 237 236 235 236 238 239 242 244 245 244 243 244 245 248 250 251 255 265
294 nan nan nan nan nan nan nan nan nan nan nan nan nan nan nan nan nan nan nan nan nan nan nan nan 285 280 279 279 279 276 273 275 280 281 282 nan nan nan nan nan nan nan nan 297 293 288 280 270 262 260 259 259 263 267 272 276 277 275 275 274 272 266 259 259 257 247 237 234 232 235 237 238 238 239 241 244 246 245 244 244 243 244 246 251 253 255
294 nan nan nan nan nan nan nan nan nan nan nan nan nan nan nan nan nan nan nan nan nan nan nan 278 275 275 277 273 274 279 281 282 nan nan nan nan nan nan nan nan nan nan nan nan nan nan nan 277 269 259 251 253 264 269 275 279 278 276 276 274 265 260 264 260 251 244 238 236 236 235 235 236 237 238 239 242 245 246 247 246 245 245 246 249 252 255
nan nan nan nan nan nan nan nan nan nan nan nan nan nan nan nan nan nan nan nan nan nan 274 272 271 267 268 268 274 281 280 284 nan nan nan nan nan nan nan nan nan nan nan nan nan nan nan nan nan nan nan 252 249 264 280 286 287 286 281 277 280 280 281 280 260 253 249 240 235 233 232 230 232 233 235 238 241 242 244 245 245 245 244 245 247 250 254
nan nan nan nan nan nan nan nan nan nan nan nan nan nan nan nan nan nan nan nan 287 283 267 260 258 259 260 266 273 276 nan nan nan nan nan nan nan nan nan nan nan nan nan nan nan nan nan nan nan nan nan nan nan 261 279 276 275 276 276 276 273 273 265 259 261 254 250 249 238 237 237 239 236 235 235 237 239 241 242 243 245 246 246 246 247 250 253
nan nan nan nan nan nan nan nan nan nan nan nan nan nan nan nan nan nan 287 287 nan 267 272 268 270 273 274 273 277 nan nan nan nan nan nan nan nan nan nan nan nan nan nan nan nan nan nan nan nan nan nan nan nan 275 268 264 270 276 278 nan 264 259 256 255 256 250 242 235 235 234 238 235 234 235 234 237 241 244 245 246 247 247 247 247 248 249 254
nan nan nan nan nan nan nan nan nan nan nan nan nan nan nan nan 284 286 281 284 282 273 266 263 268 272 nan nan nan nan nan nan nan nan nan nan nan nan nan nan nan nan nan nan nan nan nan nan nan nan nan nan nan 299 278 267 264 270 277 285 279 277 271 273 268 257 243 236 232 234 229 233 239 240 239 239 237 241 245 248 248 248 248 248 248 248 253
nan nan nan nan nan nan nan nan nan nan nan nan nan nan 273 278 274 271 268 262 259 259 263 269 274 nan nan nan nan nan nan nan nan nan nan nan nan nan nan nan nan nan nan nan nan nan nan nan nan nan nan 319 nan 288 273 269 262 265 259 258 261 264 270 269 273 268 258 252 241 237 238 230 227 232 227 233 241 243 245 249 250 250 249 249 248 249 250
nan nan nan nan nan nan nan nan nan nan nan 281 278 276 273 268 269 270 269 267 263 266 274 nan nan nan nan nan nan nan nan nan nan nan nan nan nan nan nan nan nan nan nan nan nan nan nan nan nan nan nan nan nan nan nan 220 258 262 261 268 274 265 nan 245 242 255 267 265 254 251 250 244 238 238 238 234 235 239 247 249 253 254 252 251 250 250 251
nan nan nan nan nan nan nan 284 283 283 283 276 275 275 271 267 262 260 262 265 267 nan nan nan nan nan nan nan nan nan nan nan nan nan nan nan nan nan nan nan nan nan nan nan nan nan nan nan nan nan nan nan nan nan nan nan nan nan nan nan 255 253 250 249 251 244 240 246 250 250 246 240 236 233 245 250 247 241 233 232 240 250 250 250 252 252 251
nan nan nan nan nan nan 284 285 283 281 273 263 265 270 269 258 255 262 271 nan nan nan nan nan nan nan nan nan nan nan nan nan nan nan nan nan nan nan nan nan nan nan nan nan nan nan nan nan nan nan nan nan nan nan nan nan nan nan nan nan nan nan 255 nan nan nan 249 243 237 238 240 237 235 234 236 243 243 241 242 240 236 241 247 252 254 254 253
nan nan nan nan nan nan 296 292 285 280 278 270 269 272 263 262 270 nan nan nan nan nan nan nan nan nan nan nan nan nan nan nan nan nan nan nan nan nan nan nan nan nan nan nan nan nan nan nan nan nan nan nan nan nan nan nan nan nan nan nan nan nan nan nan nan nan nan nan 237 237 238 238 237 239 241 237 236 242 246 242 239 242 240 238 245 249 251
nan nan nan nan nan nan 293 289 284 276 277 284 285 273 nan nan nan nan nan nan nan nan nan nan nan nan nan nan nan nan nan nan nan nan nan nan nan nan nan nan nan nan nan nan nan nan nan nan nan nan nan nan nan nan nan nan nan nan nan nan nan nan nan nan nan nan nan nan nan nan nan nan nan nan nan nan 241 nan 234 240 240 237 237 239 239 240 240
nan nan nan nan nan 297 295 289 286 279 275 281 277 nan nan nan nan nan nan nan nan nan nan nan nan nan nan nan nan nan nan nan nan nan nan nan nan nan nan nan nan nan nan nan nan nan nan nan nan nan nan nan nan nan nan nan nan nan nan nan nan nan nan nan nan nan nan nan nan nan nan nan nan nan nan nan nan nan 238 238 nan 241 240 241 245 248 248
nan nan nan 295 296 297 294 290 285 283 286 285 nan nan nan nan nan nan nan nan nan nan nan nan nan nan nan nan nan nan nan nan nan nan nan nan nan nan nan nan nan nan nan nan nan nan nan nan nan nan nan nan nan nan nan nan nan nan nan nan nan nan nan nan nan nan nan nan nan nan nan nan nan nan nan nan nan nan nan nan nan nan nan nan nan nan nan
nan 304 297 294 293 294 293 293 290 290 288 nan nan nan nan nan nan nan nan nan nan nan nan nan nan nan nan nan nan nan nan nan nan nan nan nan nan nan nan nan nan nan nan nan nan nan nan nan nan nan nan nan nan nan nan nan nan nan nan nan nan nan nan nan nan nan nan nan nan nan nan nan nan nan nan nan nan nan nan nan nan nan nan nan nan nan nan
302 296 293 290 290 294 293 293 293 294 nan nan nan nan nan nan nan nan nan nan nan nan nan nan nan nan nan nan nan nan nan nan nan nan nan nan nan nan nan nan nan nan nan nan nan nan nan nan nan nan nan nan nan nan nan nan nan nan nan nan nan nan nan nan nan nan nan nan nan nan nan nan nan nan nan nan nan nan nan nan nan nan nan nan nan nan nan
299 291 288 291 292 293 296 296 297 nan nan nan nan nan nan nan nan nan nan nan nan nan nan nan nan nan nan nan nan nan nan nan nan nan nan nan nan nan nan nan nan nan nan nan nan nan nan nan nan nan nan nan nan nan nan nan nan nan nan nan nan nan nan nan nan nan nan nan nan nan nan nan nan nan nan nan nan nan nan nan nan nan nan nan nan nan nan
293 289 287 292 299 300 303 302 nan nan nan nan nan nan nan nan nan nan nan nan nan nan nan nan nan nan nan nan nan nan nan nan nan nan nan nan nan nan nan nan nan nan nan nan nan nan nan nan nan nan nan nan nan nan nan nan nan nan nan nan nan nan nan nan nan nan nan nan nan nan nan nan nan nan nan nan nan nan nan nan nan nan nan nan nan nan nan
292 288 284 298 308 307 311 313 nan nan nan nan nan nan nan nan nan nan nan nan nan nan nan nan nan nan nan nan nan nan nan nan nan nan nan nan nan nan nan nan nan nan nan nan nan nan nan nan nan nan nan nan nan nan nan nan nan nan nan nan nan nan nan nan nan nan nan nan nan nan nan nan nan nan nan nan nan nan nan nan nan nan nan nan nan nan nan
298 295 296 308 313 313 317 319 nan nan nan nan nan nan nan nan nan nan nan nan nan nan nan nan nan nan nan nan nan nan nan nan nan nan nan nan nan nan nan nan nan nan nan nan nan nan nan nan nan nan nan nan nan nan nan nan nan nan nan nan nan nan nan nan nan nan nan nan nan nan nan nan nan nan nan nan nan nan nan nan nan nan nan nan nan nan nan
299 302 311 314 317 318 321 nan nan nan nan nan nan nan nan nan nan nan nan nan nan nan nan nan nan nan nan nan nan nan nan nan nan nan nan nan nan nan nan nan nan nan nan nan nan nan nan nan nan nan nan nan nan nan nan nan nan nan nan nan nan nan nan nan nan nan nan nan nan nan nan nan nan nan nan nan nan nan nan nan nan nan nan nan nan nan nan
292 309 313 315 312 314 321 nan nan nan nan nan nan nan nan nan nan nan nan nan nan nan nan nan nan nan nan nan nan nan nan nan nan nan nan nan nan nan nan nan nan nan nan nan nan nan nan nan nan nan nan nan nan nan nan nan nan nan nan nan nan nan nan nan nan nan nan nan nan nan nan nan nan nan nan nan nan nan nan nan nan nan nan nan nan nan nan
309 307 301 308 320 314 310 nan nan nan nan nan nan nan nan nan nan nan nan nan nan nan nan nan nan nan nan nan nan nan nan nan nan nan nan nan nan nan nan nan nan nan nan nan nan nan nan nan nan nan nan nan nan nan nan nan nan nan nan nan nan nan nan nan nan nan nan nan nan nan nan nan nan nan nan nan nan nan nan nan nan nan nan nan nan nan nan